Location: Newark
(49.8969°N, 3.3422°E)
Time: 01:12:26
(UTC+00:00)

deb Explorer IX - Pass Details

Date: 24 January 2020
Orbit: 549 x 1099 km, 38.8° (Epoch: 27 February)

Event Time Altitude Azimuth Distance (km) Brightness Sun altitude
Rises 01:26:15 0° 260° (W) 3,908 - -54.8°
Reaches altitude 10° 01:29:23 10° 250° (WSW) 2,943 - -54.5°
Maximum altitude 01:35:29 30° 193° (SSW) 1,798 - -53.9°
Drops below altitude 10° 01:41:13 10° 135° (SE) 2,760 - -53.3°
Sets 01:44:04 0° 125° (SE) 3,630 - -52.9°
